Location: Street
(51.1247°N, 2.7429°W)
Time: 04:53:55
(UTC+01:00)

NANOSAT C BR1 - Pass Details

Date: 08 April 2023
Orbit: 573 x 587 km, 98.0° (Epoch: 29 May)

Event Time Altitude Azimuth Distance (km) Brightness Sun altitude
Rises 04:44:31 0° 8° (N) 2,807 ? -16.3°
Reaches altitude 10° 04:46:46 10° 1° (N) 1,900 ? -16.0°
Maximum altitude 04:50:35 38° 293° (WNW) 882 ? -15.5°
Enters shadow 04:52:07 27° 247° (WSW) 1,109 ? -15.3°
